CW5066 Weather Reports


Display with metric or nautical units.
time (UTC)temp
F
wind
direction
speed
MPH
gust
MPH
rain 1hr
in
rain 24hr
in
rain mn
in
humidity
%
barometer
mb
20260510212057 58 203 1.0 6.0 0.00 0.00 0.00 44 1028.6
20260510211037 59 158 1.0 6.0 0.00 0.00 0.00 43 1029.4
20260510210017 58 180 2.0 8.0 0.00 0.00 0.00 43 1028.6
20260510205017 57 180 3.0 9.0 0.00 0.00 0.00 47 1028.7
20260510204017 56 180 4.0 9.0 0.00 0.00 0.00 48 1028.1
20260510203017 55 180 2.0 9.0 0.00 0.00 0.00 49 1028.2
20260510202017 55 158 2.0 7.0 0.00 0.00 0.00 47 1028.1
20260510201017 55 180 3.0 8.0 0.00 0.00 0.00 50 1028.1
20260510200017 54 203 5.0 11.0 0.00 0.00 0.00 50 1027.3
20260510195037 55 180 3.0 10.0 0.00 0.00 0.00 49 1027.9
20260510194016 52 180 3.0 8.0 0.00 0.00 0.00 53 1027.3
20260510193016 51 203 1.0 6.0 0.00 0.00 0.00 54 1026.6
20260510192016 52 203 3.0 8.0 0.00 0.00 0.00 52 1027.3
20260510191016 53 203 3.0 7.0 0.00 0.00 0.00 51 1027.2
20260510190016 52 158 1.0 7.0 0.00 0.00 0.00 53 1027.2
20260510185016 51 225 3.0 7.0 0.00 0.00 0.00 54 1026.7
20260510184016 52 180 3.0 10.0 0.00 0.00 0.00 54 1027.3
20260510183016 50 180 2.0 9.0 0.00 0.00 0.00 60 1026.8
20260510182016 48 180 2.0 6.0 0.00 0.00 0.00 58 1026.0
20260510181016 48 180 3.0 7.0 0.00 0.00 0.00 55 1026.1
20260510180017 49 203 2.0 7.0 0.00 0.00 0.00 55 1026.2
20260510175017 50 225 3.0 7.0 0.00 0.00 0.00 52 1026.8
20260510174016 51 203 5.0 15.0 0.00 0.00 0.00 52 1026.9
20260510173016 48 203 2.0 7.0 0.00 0.00 0.00 55 1026.3
20260510172016 47 225 2.0 6.0 0.00 0.00 0.00 53 1025.6
20260510171016 50 203 2.0 11.0 0.00 0.00 0.00 50 1027.1
20260510170016 51 158 1.0 5.0 0.00 0.00 0.00 42 1027.4
20260510165016 50 203 3.0 7.0 0.00 0.00 0.00 43 1026.8
20260510164016 49 203 2.0 6.0 0.00 0.00 0.00 38 1026.8
20260510163016 49 203 3.0 10.0 0.00 0.00 0.00 39 1026.7
20260510162016 48 158 4.0 9.0 0.00 0.00 0.00 40 1026.0
20260510161016 47 135 5.0 12.0 0.00 0.00 0.00 41 1025.9
20260510160056 46 135 4.0 11.0 0.00 0.00 0.00 42 1025.2
20260510155036 46 135 2.0 10.0 0.00 0.00 0.00 42 1024.9
20260510154016 45 158 3.0 9.0 0.00 0.00 0.00 44 1024.8
20260510153016 44 135 2.0 8.0 0.00 0.00 0.00 47 1024.1
20260510152016 43 135 1.0 9.0 0.00 0.00 0.00 49 1024.0
20260510151016 42 135 3.0 8.0 0.00 0.00 0.00 51 1023.9
20260510150016 40 203 1.0 3.0 0.00 0.00 0.00 62 1023.2
20260510145016 38 293 1.0 3.0 0.00 0.00 0.00 70 1022.5
20260510144036 37 0.0 3.0 0.00 0.00 0.00 78 1022.7
20260510143036 36 338 2.0 4.0 0.00 0.00 0.00 81 1022.7
20260510142016 35 315 2.0 4.0 0.00 0.00 0.00 83 1021.9
20260510141016 34 293 4.0 7.0 0.00 0.00 0.00 85 1023.3
20260510140036 34 293 4.0 7.0 0.00 0.00 0.00 89 1023.3
20260510135016 33 338 3.0 5.0 0.00 0.00 0.00 90 1023.4
20260510134016 32 180 1.0 3.0 0.00 0.00 0.00 93 1025.9
20260510133036 32 180 1.0 1.0 0.00 0.00 0.00 93 1025.7
20260510132015 31 0.0 2.0 0.00 0.00 0.00 93 1025.2
20260510131016 31 0.0 1.0 0.00 0.00 0.00 93 1025.8
20260510130016 31 180 2.0 4.0 0.00 0.00 0.00 94 1025.7
20260510125016 32 0.0 0.0 0.00 0.00 0.00 94 1025.5
20260510124015 32 0.0 0.0 0.00 0.00 0.00 95 1026.2
20260510123036 32 0.0 0.0 0.00 0.00 0.00 95 1026.1
20260510122016 32 0.0 0.0 0.00 0.00 0.00 95 1025.9
20260510121015 32 0.0 0.0 0.00 0.00 0.00 95 1025.7
20260510120015 32 0.0 0.0 0.00 0.00 0.00 95 1025.6
20260510115015 32 0.0 0.0 0.00 0.00 0.00 95 1025.2
20260510114036 32 0.0 0.0 0.00 0.00 0.00 95 1025.8
20260510113015 32 0.0 0.0 0.00 0.00 0.00 95 1025.6
20260510112017 32 0.0 0.0 0.00 0.00 0.00 95 1025.6
20260510111017 32 0.0 2.0 0.00 0.00 0.00 95 1025.4
20260510110017 32 158 1.0 6.0 0.00 0.00 0.00 95 1025.4
20260510105017 32 158 1.0 2.0 0.00 0.00 0.00 95 1025.3
20260510104017 32 158 2.0 7.0 0.00 0.00 0.00 95 1025.2
20260510103017 32 158 2.0 5.0 0.00 0.00 0.00 95 1024.9
20260510102017 32 180 3.0 5.0 0.00 0.00 0.00 95 1024.8
20260510101017 32 180 2.0 5.0 0.00 0.00 0.00 95 1024.7
20260510100017 32 135 1.0 4.0 0.00 0.00 0.00 95 1024.5
20260510095017 32 135 4.0 8.0 0.00 0.00 0.00 95 1024.5
20260510094536 32 135 4.0 9.0 0.00 0.00 0.00 95 1025.0
20260510093516 33 0.0 1.0 0.00 0.00 0.00 95 1024.9
20260510092516 32 0.0 2.0 0.00 0.00 0.00 95 1024.8
20260510091516 33 315 2.0 5.0 0.00 0.00 0.00 95 1024.0
20260510090536 33 338 3.0 4.0 0.00 0.00 0.00 95 1023.8
20260510085516 33 315 2.0 4.0 0.00 0.00 0.00 95 1023.7
20260510084515 33 315 3.0 7.0 0.00 0.00 0.00 95 1024.2
20260510083536 33 315 4.0 6.0 0.00 0.00 0.00 95 1024.1
20260510082515 33 293 2.0 5.0 0.00 0.00 0.00 95 1024.1
20260510081516 33 293 4.0 8.0 0.00 0.00 0.00 95 1023.3
20260510080516 33 270 2.0 3.0 0.00 0.00 0.00 95 1023.3
20260510075515 33 270 2.0 7.0 0.00 0.00 0.00 94 1023.4
20260510074516 33 248 3.0 4.0 0.00 0.00 0.00 94 1023.5
20260510073516 33 248 2.0 4.0 0.00 0.00 0.00 94 1023.5
20260510072516 34 248 2.0 3.0 0.00 0.00 0.00 94 1023.7
20260510071515 34 248 3.0 5.0 0.00 0.00 0.00 94 1023.7
20260510070515 34 203 2.0 4.0 0.00 0.00 0.00 94 1023.8
20260510065515 34 0.0 2.0 0.00 0.00 0.00 94 1023.9
20260510064515 34 0.0 2.0 0.00 0.00 0.00 93 1023.2
20260510063535 34 203 1.0 3.0 0.00 0.00 0.00 93 1023.3
20260510062515 34 0.0 0.0 0.00 0.00 0.00 93 1023.2
20260510061515 34 0.0 2.0 0.00 0.00 0.00 93 1023.0
20260510060515 34 0.0 0.0 0.00 0.00 0.00 92 1022.9
20260510055536 34 0.0 0.0 0.00 0.00 0.00 92 1022.6
20260510054536 34 0.0 2.0 0.00 0.00 0.00 92 1022.4
20260510053516 34 0.0 2.0 0.00 0.00 0.00 92 1022.7
20260510052516 34 0.0 2.0 0.00 0.00 0.00 91 1022.7
20260510051557 35 180 2.0 4.0 0.00 0.00 0.00 91 1022.7
20260510050536 35 203 2.0 4.0 0.00 0.00 0.00 91 1022.7
20260510045536 35 203 2.0 4.0 0.00 0.00 0.00 90 1022.6
20260510044516 35 180 3.0 5.0 0.00 0.00 0.00 90 1022.0
20260510043536 35 180 3.0 6.0 0.00 0.00 0.00 90 1022.1
20260510042516 35 158 2.0 5.0 0.00 0.00 0.00 90 1022.0
20260510041536 35 158 3.0 8.0 0.00 0.00 0.00 90 1021.3
20260510040516 35 158 4.0 8.0 0.00 0.00 0.00 91 1021.0
20260510035516 35 135 4.0 8.0 0.00 0.00 0.00 91 1021.4
20260510034536 35 158 3.0 8.0 0.00 0.00 0.00 91 1021.9
20260510033515 35 158 3.0 9.0 0.00 0.00 0.00 91 1021.9
20260510032515 35 135 4.0 10.0 0.00 0.00 0.00 91 1021.5
20260510031536 35 135 4.0 8.0 0.00 0.00 0.00 91 1020.0
20260510030516 35 135 5.0 10.0 0.00 0.00 0.00 90 1019.9
20260510025515 36 135 6.0 13.0 0.00 0.00 0.00 89 1020.1
20260510024535 36 135 5.0 12.0 0.00 0.00 0.00 87 1019.4
20260510023515 37 135 5.0 11.0 0.00 0.00 0.00 85 1019.3
20260510022515 38 158 6.0 11.0 0.00 0.00 0.00 82 1018.8
20260510021515 38 158 7.0 14.0 0.00 0.00 0.00 78 1017.9
20260510020515 39 158 7.0 11.0 0.00 0.00 0.00 74 1018.1
20260510015515 42 180 7.0 12.0 0.00 0.00 0.00 67 1018.3
20260510014516 44 180 7.0 13.0 0.00 0.00 0.00 61 1018.7
20260510013535 48 203 7.0 16.0 0.00 0.00 0.00 53 1020.0
20260510012515 51 135 6.0 12.0 0.00 0.00 0.00 34 1020.0
20260510011515 53 90 6.0 15.0 0.00 0.00 0.00 16 1019.9
20260510010515 54 113 7.0 16.0 0.00 0.00 0.00 15 1019.8
20260510005515 54 68 4.0 12.0 0.00 0.00 0.00 16 1019.7
20260510004537 54 90 5.0 13.0 0.00 0.00 0.00 18 1020.0
20260510003517 54 113 5.0 12.0 0.00 0.00 0.00 19 1020.0
20260510002518 54 0 9.0 19.0 0.00 0.00 0.00 20 1019.9
20260510001517 55 68 7.0 20.0 0.00 0.00 0.00 19 1020.4
20260510000517 55 0 6.0 19.0 0.00 0.00 0.00 19 1020.2
20260509235517 55 0 8.0 20.0 0.00 0.00 0.00 19 1020.2
20260509234517 55 0 8.0 17.0 0.00 0.00 0.00 19 1020.7
20260509233517 56 68 5.0 15.0 0.00 0.00 0.00 20 1020.5
20260509232517 56 68 6.0 15.0 0.00 0.00 0.00 19 1020.6
20260509231517 56 0 7.0 16.0 0.00 0.00 0.00 19 1020.3
20260509230517 57 68 10.0 26.0 0.00 0.00 0.00 19 1021.0
20260509225537 57 0 8.0 17.0 0.00 0.00 0.00 20 1020.8
20260509224537 58 0 6.0 19.0 0.00 0.00 0.00 19 1021.6
20260509223517 57 0 5.0 14.0 0.00 0.00 0.00 19 1020.7
20260509222537 57 0 7.0 14.0 0.00 0.00 0.00 18 1020.9
20260509221517 58 0 7.0 15.0 0.00 0.00 0.00 17 1021.3
20260509220517 58 0 6.0 14.0 0.00 0.00 0.00 19 1021.6
20260509215516 59 68 6.0 20.0 0.00 0.00 0.00 18 1021.7
20260509214516 57 0 15.0 25.0 0.00 0.00 0.00 19 1021.0
20260509213517 58 0 9.0 20.0 0.00 0.00 0.00 19 1021.8